DLH732 EDDF-ZSPD

Flight info

Callsign DLH732
Flight time N/A
Altitude 31000
Route CINDY5L CINDY Z74 HAREM DCT ASLEP DCT TAKUT DCT DINKU L603 BESNI/N0489F350 L605 BIBAG Q104 AKIMA DCT ARSIN DCT TEGRI DCT LUGEB/N0484F370 DCT UDROS UM859 KARDE UL851 TBN UM11 REBLO M11 MATAL T916 LEYLA N161 GASBI/K0906F370 N161 ABDUN/K0895F390 N161 SARIN/K0900S1190 A368 FKG W188 LIKMI W270 BUVEM/K0893S1250 W270 DKO W64 NUTLO B208 CGO W129 KAMDA W128 FYG B208 HFE R343 SASAN SAS91A
Aircraft A359/H-SDE2E3GHIJ3J4J5LM1ORWXY/LB1D1

Departure

Time N/A
Airport Frankfurt Main Airport (EDDF)

Arrival

Time 2026-04-30 07:16
Airport Shanghai Pudong International Airport (ZSPD)
Time Latitude Longitude Altitude Speed Heading
2026-04-30 06:58 31.12784 121.33799 12886 ft 430 kts 123°
2026-04-30 06:58 31.11648 121.37022 13081 ft 431 kts 108°
2026-04-30 06:59 31.10845 121.40407 13039 ft 429 kts 106°
2026-04-30 06:59 31.10109 121.43702 12910 ft 411 kts 105°
2026-04-30 06:59 31.09400 121.46862 12771 ft 394 kts 106°
2026-04-30 06:59 31.08711 121.49904 12606 ft 380 kts 106°
2026-04-30 07:00 31.08044 121.52828 12390 ft 368 kts 106°
2026-04-30 07:00 31.07393 121.55668 12192 ft 356 kts 107°
2026-04-30 07:00 31.06761 121.58415 11925 ft 347 kts 106°
2026-04-30 07:00 31.06146 121.61076 11588 ft 342 kts 106°
2026-04-30 07:01 31.05533 121.63729 11249 ft 337 kts 106°
2026-04-30 07:01 31.04925 121.66355 10845 ft 334 kts 105°
2026-04-30 07:01 31.04204 121.68908 10486 ft 329 kts 117°
2026-04-30 07:01 31.02810 121.70923 10201 ft 315 kts 147°
2026-04-30 07:02 31.00885 121.72033 9930 ft 307 kts 165°
2026-04-30 07:02 30.98921 121.72786 9688 ft 307 kts 167°
2026-04-30 07:02 30.97703 121.73229 9545 ft 307 kts 167°
2026-04-30 07:02 30.95899 121.73888 9329 ft 306 kts 167°
2026-04-30 07:03 30.93872 121.74644 9092 ft 305 kts 166°
2026-04-30 07:03 30.91858 121.75396 8854 ft 303 kts 166°
2026-04-30 07:03 30.89851 121.76146 8607 ft 302 kts 166°
2026-04-30 07:03 30.87852 121.76896 8371 ft 301 kts 165°
2026-04-30 07:04 30.85868 121.77647 8121 ft 299 kts 165°
2026-04-30 07:04 30.83890 121.78391 7875 ft 298 kts 165°
2026-04-30 07:04 30.81947 121.79122 7657 ft 297 kts 165°
2026-04-30 07:04 30.80020 121.79850 7499 ft 286 kts 164°
2026-04-30 07:05 30.76364 121.81228 7084 ft 269 kts 164°
2026-04-30 07:05 30.74739 121.82257 6834 ft 266 kts 137°
2026-04-30 07:05 30.73819 121.84057 6583 ft 260 kts 100°
2026-04-30 07:06 30.73882 121.86089 6367 ft 250 kts 71°
2026-04-30 07:06 30.74391 121.88008 6147 ft 248 kts 67°
2026-04-30 07:06 30.74946 121.89892 5990 ft 242 kts 67°
2026-04-30 07:06 30.75475 121.91710 5815 ft 234 kts 68°
2026-04-30 07:07 30.76008 121.93465 5617 ft 226 kts 63°
2026-04-30 07:07 30.76904 121.94873 5431 ft 213 kts 30°
2026-04-30 07:07 30.78267 121.95290 5398 ft 203 kts 354°
2026-04-30 07:07 30.79660 121.95119 5385 ft 197 kts 348°
2026-04-30 07:08 30.80972 121.94797 5368 ft 191 kts 342°
2026-04-30 07:08 30.82239 121.94357 5368 ft 190 kts 340°
2026-04-30 07:08 30.83490 121.93876 5367 ft 190 kts 339°
2026-04-30 07:08 30.84754 121.93398 5372 ft 192 kts 340°
2026-04-30 07:09 30.86029 121.92922 5372 ft 193 kts 340°
2026-04-30 07:09 30.87307 121.92442 5326 ft 193 kts 340°
2026-04-30 07:09 30.88584 121.91961 5139 ft 193 kts 340°
2026-04-30 07:09 30.89859 121.91481 4884 ft 192 kts 340°
2026-04-30 07:10 30.91107 121.91011 4595 ft 191 kts 340°
2026-04-30 07:10 30.92372 121.90535 4270 ft 191 kts 340°
2026-04-30 07:10 30.93636 121.90060 3980 ft 191 kts 341°
2026-04-30 07:10 30.94896 121.89585 3729 ft 188 kts 341°
2026-04-30 07:11 30.96132 121.89118 3465 ft 185 kts 341°
2026-04-30 07:11 30.97340 121.88665 3215 ft 179 kts 341°
2026-04-30 07:11 30.98511 121.88225 2979 ft 175 kts 341°
2026-04-30 07:11 30.99656 121.87790 2746 ft 172 kts 341°
2026-04-30 07:12 31.00783 121.87365 2488 ft 168 kts 342°
2026-04-30 07:12 31.01871 121.86957 2261 ft 159 kts 342°
2026-04-30 07:12 31.02880 121.86577 2063 ft 147 kts 342°
2026-04-30 07:12 31.03828 121.86219 1861 ft 139 kts 341°
2026-04-30 07:13 31.04719 121.85880 1679 ft 131 kts 341°
2026-04-30 07:13 31.05572 121.85558 1504 ft 129 kts 342°
2026-04-30 07:13 31.06422 121.85236 1323 ft 128 kts 341°
2026-04-30 07:13 31.07273 121.84919 1151 ft 129 kts 341°
2026-04-30 07:14 31.08118 121.84598 986 ft 126 kts 341°
2026-04-30 07:14 31.08952 121.84281 810 ft 128 kts 341°
2026-04-30 07:14 31.09818 121.83970 655 ft 133 kts 343°
2026-04-30 07:14 31.10714 121.83632 454 ft 137 kts 341°
2026-04-30 07:15 31.11608 121.83266 292 ft 135 kts 342°
2026-04-30 07:15 31.12495 121.82941 125 ft 133 kts 344°
2026-04-30 07:15 31.13373 121.82616 30 ft 124 kts 342°
2026-04-30 07:15 31.14069 121.82356 27 ft 89 kts 342°
2026-04-30 07:16 31.14535 121.82178 28 ft 52 kts 342°
2026-04-30 07:16 31.14768 121.82086 26 ft 25 kts 342°
2026-04-30 07:16 31.14933 121.82023 27 ft 25 kts 340°
2026-04-30 07:16 31.15069 121.81913 28 ft 23 kts 316°
2026-04-30 07:17 31.15179 121.81779 29 ft 23 kts 313°
2026-04-30 07:17 31.15289 121.81648 29 ft 22 kts 319°
2026-04-30 07:17 31.15460 121.81554 29 ft 11 kts 342°
2026-04-30 07:18 31.15505 121.81510 29 ft 8 kts 294°
2026-04-30 07:18 31.15501 121.81452 29 ft 8 kts 252°
2026-04-30 07:18 31.15478 121.81376 29 ft 12 kts 250°
2026-04-30 07:18 31.15445 121.81266 28 ft 16 kts 252°
2026-04-30 07:19 31.15411 121.81140 29 ft 17 kts 252°
2026-04-30 07:19 31.15373 121.80997 29 ft 18 kts 252°
2026-04-30 07:19 31.15355 121.80931 29 ft 6 kts 250°
2026-04-30 07:19 31.15337 121.80877 29 ft 6 kts 249°
2026-04-30 07:20 31.15316 121.80862 29 ft 3 kts 191°
2026-04-30 07:20 31.15257 121.80876 29 ft 15 kts 168°
2026-04-30 07:20 31.15208 121.80893 29 ft 0 kts 161°
2026-04-30 07:21 31.15176 121.80906 29 ft 3 kts 161°
2026-04-30 07:21 31.15146 121.80913 29 ft 5 kts 183°
2026-04-30 07:21 31.15118 121.80890 29 ft 6 kts 232°
2026-04-30 07:22 31.15100 121.80843 29 ft 3 kts 250°
2026-04-30 07:22 31.15097 121.80832 29 ft 1 kts 251°